Time,TemperatureF,DewpointF,PressureIn,WindDirection,WindDirectionDegrees,WindSpeedMPH,WindSpeedGustMPH,Humidity,HourlyPrecipIn,Conditions,Clouds,dailyrainin,SoftwareType,DateUTC
2013-07-12 00:02:00,74.0,72.0,29.91,SE,138,0.0,2.0,94,0.00,,,0.57,,2013-07-12 05:02:00,
2013-07-12 00:11:00,73.0,71.0,29.90,SE,138,0.0,1.0,94,0.00,,,0.57,,2013-07-12 05:11:00,
2013-07-12 00:22:00,73.0,71.0,29.90,SE,138,0.0,1.0,94,0.00,,,0.57,,2013-07-12 05:22:00,
2013-07-12 00:32:00,73.0,71.0,29.90,SE,138,0.0,1.0,95,0.00,,,0.57,,2013-07-12 05:32:00,
2013-07-12 00:53:00,73.0,71.0,29.90,SE,138,0.0,1.0,95,0.00,,,0.57,,2013-07-12 05:53:00,
2013-07-12 01:01:00,73.0,71.0,29.90,SE,138,0.0,1.0,95,0.00,,,0.57,,2013-07-12 06:01:00,
2013-07-12 01:11:00,73.0,71.0,29.89,SE,138,1.0,3.0,95,0.00,,,0.57,,2013-07-12 06:11:00,
2013-07-12 01:22:00,73.0,71.0,29.89,SE,138,1.0,3.0,95,0.00,,,0.57,,2013-07-12 06:22:00,
2013-07-12 01:33:00,72.0,70.0,29.89,SSE,161,1.0,3.0,95,0.00,,,0.57,,2013-07-12 06:33:00,
2013-07-12 01:42:00,72.0,70.0,29.89,SSE,161,1.0,3.0,95,0.00,,,0.57,,2013-07-12 06:42:00,
2013-07-12 01:52:00,72.0,70.0,29.89,South,191,0.0,3.0,95,0.00,,,0.57,,2013-07-12 06:52:00,
2013-07-12 02:02:00,72.0,71.0,29.89,South,191,0.0,2.0,96,0.00,,,0.57,,2013-07-12 07:02:00,
2013-07-12 02:12:00,72.0,71.0,29.89,South,191,0.0,2.0,96,0.00,,,0.57,,2013-07-12 07:12:00,
2013-07-12 02:22:00,72.0,71.0,29.88,South,191,0.0,0.0,96,0.00,,,0.57,,2013-07-12 07:22:00,
2013-07-12 02:32:00,71.0,70.0,29.88,South,191,0.0,0.0,96,0.00,,,0.57,,2013-07-12 07:32:00,
2013-07-12 02:43:00,71.0,70.0,29.88,South,191,0.0,0.0,96,0.00,,,0.57,,2013-07-12 07:43:00,
2013-07-12 02:52:00,71.0,70.0,29.88,South,191,0.0,0.0,96,0.00,,,0.57,,2013-07-12 07:52:00,
2013-07-12 03:01:00,71.0,70.0,29.88,South,191,0.0,0.0,96,0.00,,,0.57,,2013-07-12 08:01:00,
2013-07-12 03:11:00,71.0,70.0,29.88,South,191,0.0,0.0,96,0.00,,,0.57,,2013-07-12 08:11:00,
2013-07-12 03:21:00,71.0,70.0,29.89,South,191,0.0,0.0,96,0.00,,,0.57,,2013-07-12 08:21:00,
2013-07-12 03:32:00,71.0,70.0,29.88,South,191,0.0,1.0,96,0.00,,,0.57,,2013-07-12 08:32:00,
2013-07-12 03:42:00,71.0,70.0,29.88,South,191,0.0,1.0,96,0.00,,,0.57,,2013-07-12 08:42:00,
2013-07-12 03:53:00,71.0,70.0,29.89,South,191,0.0,1.0,96,0.00,,,0.57,,2013-07-12 08:53:00,
2013-07-12 04:02:00,71.0,70.0,29.90,South,191,0.0,1.0,96,0.00,,,0.57,,2013-07-12 09:02:00,
2013-07-12 04:12:00,71.0,70.0,29.90,South,191,0.0,1.0,96,0.00,,,0.57,,2013-07-12 09:12:00,
2013-07-12 04:22:00,71.0,70.0,29.90,South,191,1.0,2.0,96,0.00,,,0.57,,2013-07-12 09:22:00,
2013-07-12 04:43:00,71.0,70.0,29.91,South,191,0.0,1.0,97,0.00,,,0.57,,2013-07-12 09:43:00,
2013-07-12 04:52:00,71.0,70.0,29.91,South,191,0.0,1.0,97,0.00,,,0.57,,2013-07-12 09:52:00,
2013-07-12 05:01:00,71.0,70.0,29.91,South,191,1.0,2.0,97,0.00,,,0.57,,2013-07-12 10:01:00,
2013-07-12 05:11:00,71.0,70.0,29.91,South,191,1.0,2.0,97,0.00,,,0.57,,2013-07-12 10:11:00,
2013-07-12 05:22:00,71.0,70.0,29.92,South,191,0.0,3.0,97,0.00,,,0.57,,2013-07-12 10:22:00,
2013-07-12 05:33:00,71.0,70.0,29.92,SSW,201,1.0,3.0,97,0.01,,,0.59,,2013-07-12 10:33:00,
2013-07-12 05:42:00,71.0,70.0,29.92,SSW,201,1.0,3.0,97,0.01,,,0.59,,2013-07-12 10:42:00,
2013-07-12 05:52:00,71.0,70.0,29.92,SSW,201,0.0,2.0,97,0.01,,,0.59,,2013-07-12 10:52:00,
2013-07-12 06:02:00,70.0,69.0,29.93,SSW,201,0.0,2.0,97,0.01,,,0.59,,2013-07-12 11:02:00,
2013-07-12 06:12:00,70.0,69.0,29.93,SSW,201,0.0,2.0,97,0.01,,,0.59,,2013-07-12 11:12:00,
2013-07-12 06:22:00,70.0,69.0,29.93,SSW,201,0.0,0.0,97,0.01,,,0.59,,2013-07-12 11:22:00,
2013-07-12 06:32:00,70.0,69.0,29.93,SSW,201,0.0,0.0,97,0.00,,,0.59,,2013-07-12 11:32:00,
2013-07-12 06:43:00,70.0,69.0,29.93,SSW,201,0.0,0.0,97,0.00,,,0.59,,2013-07-12 11:43:00,
2013-07-12 06:53:00,70.0,69.0,29.94,WSW,241,0.0,1.0,97,0.00,,,0.59,,2013-07-12 11:53:00,
2013-07-12 07:02:00,71.0,70.0,29.94,WSW,243,0.0,1.0,97,0.00,,,0.59,,2013-07-12 12:02:00,
2013-07-12 07:11:00,71.0,70.0,29.94,WSW,243,0.0,1.0,97,0.00,,,0.59,,2013-07-12 12:11:00,
2013-07-12 07:22:00,71.0,70.0,29.94,SSW,192,0.0,2.0,97,0.00,,,0.59,,2013-07-12 12:22:00,
2013-07-12 07:32:00,71.0,70.0,29.94,NNW,333,0.0,2.0,97,0.00,,,0.59,,2013-07-12 12:32:00,
2013-07-12 07:43:00,71.0,70.0,29.94,NNW,333,0.0,2.0,97,0.00,,,0.59,,2013-07-12 12:43:00,
2013-07-12 07:53:00,72.0,71.0,29.95,North,360,1.0,4.0,97,0.00,,,0.59,,2013-07-12 12:53:00,
2013-07-12 08:01:00,73.0,72.0,29.95,North,351,2.0,4.0,97,0.00,,,0.59,,2013-07-12 13:01:00,
2013-07-12 08:12:00,73.0,72.0,29.95,North,351,2.0,4.0,97,0.00,,,0.59,,2013-07-12 13:12:00,
2013-07-12 08:22:00,74.0,72.0,29.96,NNE,23,1.0,5.0,95,0.00,,,0.59,,2013-07-12 13:22:00,
2013-07-12 08:43:00,76.0,74.0,29.96,NNE,32,2.0,5.0,92,0.00,,,0.59,,2013-07-12 13:43:00,
2013-07-12 08:53:00,76.0,73.0,29.96,ENE,68,4.0,7.0,89,0.00,,,0.59,,2013-07-12 13:53:00,
2013-07-12 09:02:00,77.0,73.0,29.96,NNE,28,6.0,10.0,88,0.00,,,0.59,,2013-07-12 14:02:00,
2013-07-12 09:11:00,77.0,73.0,29.96,NNE,28,6.0,10.0,88,0.00,,,0.59,,2013-07-12 14:11:00,
2013-07-12 09:22:00,78.0,74.0,29.96,NE,35,4.0,7.0,87,0.00,,,0.59,,2013-07-12 14:22:00,
2013-07-12 09:32:00,79.0,74.0,29.96,NE,36,4.0,6.0,86,0.00,,,0.59,,2013-07-12 14:32:00,
2013-07-12 09:44:00,79.0,74.0,29.96,NE,36,4.0,6.0,86,0.00,,,0.59,,2013-07-12 14:44:00,
2013-07-12 09:53:00,80.0,74.0,29.95,NE,51,3.0,7.0,83,0.00,,,0.59,,2013-07-12 14:53:00,
2013-07-12 10:02:00,81.0,75.0,29.95,North,5,2.0,6.0,83,0.00,,,0.59,,2013-07-12 15:02:00,
2013-07-12 10:11:00,81.0,75.0,29.95,North,5,2.0,6.0,83,0.00,,,0.59,,2013-07-12 15:11:00,
2013-07-12 10:22:00,81.0,75.0,29.95,NNE,15,2.0,6.0,82,0.00,,,0.59,,2013-07-12 15:22:00,
2013-07-12 10:33:00,82.0,76.0,29.95,NW,326,2.0,6.0,82,0.00,,,0.59,,2013-07-12 15:33:00,
2013-07-12 10:43:00,82.0,76.0,29.95,NW,326,2.0,6.0,82,0.00,,,0.59,,2013-07-12 15:43:00,
2013-07-12 10:53:00,82.0,76.0,29.95,NW,318,3.0,7.0,81,0.00,,,0.59,,2013-07-12 15:53:00,
2013-07-12 11:01:00,83.0,75.0,29.94,NNW,331,3.0,7.0,78,0.00,,,0.59,,2013-07-12 16:01:00,
2013-07-12 11:11:00,83.0,75.0,29.94,NNW,331,3.0,7.0,78,0.00,,,0.59,,2013-07-12 16:11:00,
2013-07-12 11:22:00,84.0,76.0,29.94,NNW,344,2.0,6.0,78,0.00,,,0.59,,2013-07-12 16:22:00,
2013-07-12 11:32:00,84.0,76.0,29.94,NNW,336,3.0,8.0,78,0.00,,,0.59,,2013-07-12 16:32:00,
2013-07-12 11:43:00,84.0,76.0,29.94,NNW,336,3.0,8.0,78,0.00,,,0.59,,2013-07-12 16:43:00,
2013-07-12 11:58:00,84.0,76.0,29.94,NNW,336,3.0,8.0,78,0.00,,,0.59,,2013-07-12 16:58:00,
2013-07-12 12:05:00,86.0,76.0,29.94,North,350,5.0,9.0,72,0.00,,,0.59,,2013-07-12 17:05:00,
2013-07-12 12:14:00,86.0,76.0,29.94,North,350,5.0,9.0,72,0.00,,,0.59,,2013-07-12 17:14:00,
2013-07-12 12:24:00,86.0,76.0,29.94,North,355,5.0,10.0,73,0.00,,,0.59,,2013-07-12 17:24:00,
2013-07-12 12:45:00,87.0,77.0,29.93,North,355,5.0,10.0,72,0.00,,,0.59,,2013-07-12 17:45:00,
2013-07-12 12:56:00,87.0,77.0,29.93,NNW,331,5.0,10.0,73,0.00,,,0.59,,2013-07-12 17:56:00,
2013-07-12 13:07:00,87.0,76.0,29.93,NNW,328,6.0,11.0,69,0.00,,,0.59,,2013-07-12 18:07:00,
2013-07-12 13:14:00,87.0,76.0,29.93,NNW,328,6.0,11.0,69,0.00,,,0.59,,2013-07-12 18:14:00,
2013-07-12 13:27:00,87.0,75.0,29.93,North,5,6.0,12.0,68,0.00,,,0.59,,2013-07-12 18:27:00,
2013-07-12 13:34:00,88.0,77.0,29.93,NW,323,5.0,11.0,69,0.00,,,0.59,,2013-07-12 18:34:00,
2013-07-12 13:57:00,87.0,74.0,29.93,NNW,342,7.0,11.0,66,0.00,,,0.59,,2013-07-12 18:57:00,
2013-07-12 14:04:00,87.0,74.0,29.92,NNW,342,7.0,12.0,65,0.00,,,0.59,,2013-07-12 19:04:00,
2013-07-12 14:15:00,87.0,74.0,29.92,NNW,342,7.0,12.0,65,0.00,,,0.59,,2013-07-12 19:15:00,
2013-07-12 14:23:00,88.0,72.0,29.92,North,355,6.0,11.0,59,0.00,,,0.59,,2013-07-12 19:23:00,
2013-07-12 14:33:00,88.0,69.0,29.92,North,360,6.0,11.0,53,0.00,,,0.59,,2013-07-12 19:33:00,
2013-07-12 14:58:00,89.0,67.0,29.91,North,355,4.0,11.0,49,0.00,,,0.59,,2013-07-12 19:58:00,
2013-07-12 15:13:00,89.0,69.0,29.91,NNW,347,6.0,10.0,52,0.00,,,0.21,,2013-07-12 20:13:00,
2013-07-12 15:24:00,89.0,68.0,29.91,North,5,6.0,11.0,51,0.00,,,0.21,,2013-07-12 20:24:00,
2013-07-12 15:33:00,89.0,70.0,29.91,NE,37,6.0,11.0,54,0.00,,,0.21,,2013-07-12 20:33:00,
2013-07-12 15:45:00,89.0,70.0,29.91,NE,37,6.0,11.0,54,0.00,,,0.21,,2013-07-12 20:45:00,
2013-07-12 15:55:00,89.0,69.0,29.91,NNE,17,7.0,11.0,52,0.00,,,0.21,,2013-07-12 20:55:00,
2013-07-12 16:03:00,89.0,70.0,29.91,NNE,24,6.0,11.0,54,0.00,,,0.01,,2013-07-12 21:03:00,
2013-07-12 16:15:00,89.0,70.0,29.91,NNE,24,6.0,11.0,54,0.00,,,0.01,,2013-07-12 21:15:00,
2013-07-12 16:25:00,89.0,68.0,29.90,North,5,6.0,11.0,50,0.00,,,0.01,,2013-07-12 21:25:00,
2013-07-12 16:35:00,89.0,65.0,29.90,NNW,348,6.0,10.0,45,0.00,,,0.01,,2013-07-12 21:35:00,
2013-07-12 16:46:00,89.0,65.0,29.90,NNW,348,6.0,10.0,45,0.00,,,0.01,,2013-07-12 21:46:00,
2013-07-12 16:58:00,89.0,69.0,29.90,North,355,6.0,11.0,52,0.00,,,0.01,,2013-07-12 21:58:00,
2013-07-12 17:04:00,88.0,69.0,29.90,NE,45,6.0,11.0,54,0.00,,,0.01,,2013-07-12 22:04:00,
2013-07-12 17:16:00,88.0,69.0,29.90,NE,45,6.0,11.0,54,0.00,,,0.01,,2013-07-12 22:16:00,
2013-07-12 17:24:00,88.0,69.0,29.89,NE,49,5.0,12.0,54,0.00,,,0.01,,2013-07-12 22:24:00,
2013-07-12 17:33:00,87.0,67.0,29.89,North,10,6.0,11.0,52,0.00,,,0.01,,2013-07-12 22:33:00,
2013-07-12 17:44:00,87.0,67.0,29.89,North,10,6.0,11.0,52,0.00,,,0.01,,2013-07-12 22:44:00,
2013-07-12 17:56:00,87.0,68.0,29.89,NE,40,7.0,12.0,53,0.00,,,0.01,,2013-07-12 22:56:00,
2013-07-12 18:03:00,87.0,68.0,29.89,NNE,21,6.0,11.0,54,0.00,,,0.01,,2013-07-12 23:03:00,
2013-07-12 18:25:00,86.0,63.0,29.88,NE,45,8.0,13.0,47,0.00,,,0.01,,2013-07-12 23:25:00,
2013-07-12 18:34:00,86.0,63.0,29.88,NNE,12,6.0,10.0,46,0.00,,,0.01,,2013-07-12 23:34:00,
2013-07-12 18:43:00,86.0,63.0,29.88,NNE,12,6.0,10.0,46,0.00,,,0.01,,2013-07-12 23:43:00,
2013-07-12 18:58:00,85.0,64.0,29.88,NE,49,6.0,10.0,49,0.00,,,0.01,,2013-07-12 23:58:00,
2013-07-12 19:05:00,85.0,65.0,29.88,NNE,24,5.0,10.0,51,0.00,,,0.01,,2013-07-13 00:05:00,
2013-07-12 19:25:00,84.0,67.0,29.89,NNE,19,4.0,7.0,56,0.00,,,0.01,,2013-07-13 00:25:00,
2013-07-12 19:33:00,83.0,66.0,29.89,NE,55,3.0,7.0,56,0.00,,,0.01,,2013-07-13 00:33:00,
2013-07-12 19:46:00,83.0,66.0,29.89,NE,55,3.0,7.0,56,0.00,,,0.01,,2013-07-13 00:46:00,
2013-07-12 19:56:00,82.0,65.0,29.89,NNE,22,4.0,8.0,57,0.00,,,0.01,,2013-07-13 00:56:00,
2013-07-12 20:04:00,82.0,65.0,29.89,NNE,22,4.0,8.0,57,0.00,,,0.01,,2013-07-13 01:04:00,
2013-07-12 20:13:00,81.0,66.0,29.90,NNE,15,3.0,6.0,60,0.00,,,0.01,,2013-07-13 01:13:00,
2013-07-12 20:24:00,81.0,66.0,29.90,NNE,15,3.0,6.0,60,0.00,,,0.01,,2013-07-13 01:24:00,
2013-07-12 20:37:00,80.0,66.0,29.91,NNE,28,2.0,5.0,63,0.00,,,0.01,,2013-07-13 01:37:00,
2013-07-12 20:47:00,80.0,66.0,29.91,NNE,28,2.0,5.0,63,0.00,,,0.01,,2013-07-13 01:47:00,
2013-07-12 20:55:00,77.0,67.0,29.92,NNE,22,1.0,3.0,71,0.00,,,0.01,,2013-07-13 01:55:00,
2013-07-12 21:05:00,77.0,67.0,29.92,NNE,22,1.0,3.0,71,0.00,,,0.01,,2013-07-13 02:05:00,
2013-07-12 21:14:00,76.0,67.0,29.91,NNE,22,1.0,3.0,74,0.00,,,0.01,,2013-07-13 02:14:00,
2013-07-12 21:24:00,75.0,67.0,29.92,NE,36,1.0,3.0,75,0.00,,,0.01,,2013-07-13 02:24:00,
2013-07-12 21:36:00,76.0,66.0,29.92,NNE,27,1.0,4.0,72,0.00,,,0.01,,2013-07-13 02:36:00,
2013-07-12 21:46:00,76.0,66.0,29.92,NNE,27,1.0,4.0,72,0.00,,,0.01,,2013-07-13 02:46:00,
2013-07-12 21:53:00,74.0,66.0,29.92,ENE,58,1.0,3.0,77,0.00,,,0.01,,2013-07-13 02:53:00,
2013-07-12 22:05:00,73.0,66.0,29.92,NE,47,1.0,3.0,80,0.00,,,0.01,,2013-07-13 03:05:00,
2013-07-12 22:27:00,73.0,66.0,29.92,NE,47,1.0,3.0,80,0.00,,,0.01,,2013-07-13 03:27:00,
2013-07-12 22:36:00,72.0,67.0,29.92,North,355,0.0,1.0,85,0.00,,,0.01,,2013-07-13 03:36:00,
2013-07-12 22:45:00,72.0,67.0,29.92,North,355,0.0,1.0,85,0.00,,,0.01,,2013-07-13 03:45:00,
2013-07-12 22:57:00,72.0,67.0,29.92,North,355,0.0,3.0,85,0.00,,,0.01,,2013-07-13 03:57:00,
2013-07-12 23:01:00,70.0,66.0,29.92,North,355,0.0,1.0,86,0.00,,,0.01,,2013-07-13 04:01:00,
2013-07-12 23:12:00,70.0,66.0,29.92,North,355,0.0,1.0,86,0.00,,,0.01,,2013-07-13 04:12:00,
2013-07-12 23:22:00,70.0,66.0,29.92,North,355,1.0,2.0,88,0.00,,,0.01,,2013-07-13 04:22:00,
2013-07-12 23:32:00,71.0,66.0,29.92,North,351,1.0,2.0,85,0.00,,,0.01,,2013-07-13 04:32:00,
2013-07-12 23:43:00,71.0,66.0,29.92,North,351,1.0,2.0,85,0.00,,,0.01,,2013-07-13 04:43:00,
2013-07-12 23:52:00,71.0,67.0,29.92,North,351,0.0,1.0,86,0.00,,,0.01,,2013-07-13 04:52:00,